Regional Weather Roundup
Issued by NWS Sterling, VA

Home | Current Version | Previous Version | Text Only | Print | Product List | Glossary Off
Versions: 1 2 3 4 5 6 7 8 9 10 11 12 13 14 15 16 17 18 19 20 21 22 23 24 25 26 27

000
ASUS41 KLWX 241110
RWRLWX

REGIONAL WEATHER ROUNDUP
NATIONAL WEATHER SERVICE BALTIMORE MD/WASHINGTON DC
600 AM EST FRI FEB 24 2017

Note: "FAIR" indicates few or no clouds below 12,000 feet
with no significant weather and/or obstructions to visibility.
 TC=TEMPERATURE CELSIUS

 * =Non NWS site. Station does not report precipitation (e.g. rain,
    snow, etc.), thunder, or fog.

DCZ001-MDZ009-015-VAZ040>042-051-053>054-241200-
WASHINGTON METRO

CITY           SKY/WX    TMP DP  RH WIND       PRES   REMARKS
WASHINGTON NAT CLEAR     54  53  97 S6        29.92R
DULLES         PTCLDY    54  50  86 S5        29.90R
ANDREWS AFB    PTCLDY    54  52  92 S6        29.91R
FT BELVOIR     CLEAR     47  46  94 CALM      29.91S
QUANTICO       PTCLDY    54  54 100 SW6       29.93R
COLLEGE PARK*  CLEAR     46  45  93 CALM      29.91S
LEESBURG*      PTCLDY    55  54  94 MISG      29.90S
MANASSAS*      PTCLDY    46  43  89 CALM      29.91R
GAITHERSBURG*  CLEAR     54  46  76 SE5       29.94S

$$

MDZ006>007-011-014-241200-
BALTIMORE METRO

CITY           SKY/WX    TMP DP  RH WIND       PRES   REMARKS
BWI AIRPORT    PTCLDY    48  47  96 CALM      29.91R
MD SCIENCE CTR   N/A     53  48  83 MISG      29.92R
MARTIN STATE   PTCLDY    50  50 100 E5        29.93S
ANNAPOLIS      CLOUDY    51  49  92 SE6       29.92R
FORT MEADE*    CLEAR     43  41  93 S3        29.94R

$$

MDZ012-015-019>023-241200-
MARYLAND EASTERN SHORE

CITY           SKY/WX    TMP DP  RH WIND       PRES   REMARKS
OCEAN CITY     CLEAR     50  48  93 SW5       29.97R
SALISBURY      CLEAR     52  51  97 CALM      29.95R
BAY BRIDGE AP* CLOUDY    52  52 100 S8        29.93R
CAMBRIDGE*     CLEAR     50  48  93 S5        29.95R
EASTON*        CLEAR     54  50  87 S6        29.98R

$$

MDZ017>025-241200-
SOUTHERN MARYLAND

CITY           SKY/WX    TMP DP  RH WIND       PRES   REMARKS
PATUXENT RIVER PTCLDY    48  48 100 CALM      29.94R
ST INIGOES     CLEAR     54  52  93 SE5       29.93S
LEONARDTOWN*   CLEAR     54  52  94 CALM      29.95R

$$

MDZ003>005-241200-
NORTH CENTRAL MARYLAND

CITY           SKY/WX    TMP DP  RH WIND       PRES   REMARKS
FREDERICK*     CLEAR     46  46 100 CALM      29.92S
HAGERSTOWN APT PTCLDY    59  51  75 S8        29.86R
WESTMINSTER*   CLEAR     55  52  88 S5        29.89S

$$

MDZ501>502-241200-
WESTERN MARYLAND

CITY           SKY/WX    TMP DP  RH WIND       PRES   REMARKS
OAKLAND*       PTCLDY    50  45  81 S8        29.89S
CUMBERLAND*    PTCLDY    52  52 100 CALM      29.90S

$$

VAZ025>031-241200-
SHENANDOAH VALLEY

CITY           SKY/WX    TMP DP  RH WIND       PRES   REMARKS
WINCHESTER*    MOCLDY    54  48  82 S5        29.87S
FRONT ROYAL*   PTCLDY    54  50  87 S3        29.87R
LURAY*         PTCLDY    45  45 100 CALM      29.89S
NEW MARKET*    PTCLDY    42  41  96 CALM      29.88S
STAUNTON*      PTCLDY    42  42  98 CALM      29.92S
WAYNESBORO*    PTCLDY    46  44  96 CALM      29.91R

$$

WVZ021-048>050-054>055-241200-
EASTERN WEST VIRGINIA PANHANDLE

CITY           SKY/WX    TMP DP  RH WIND       PRES   REMARKS
MARTINSBURG    MOCLDY    51  48  89 SW3       29.86S
PETERSBURG*    CLOUDY    47  46  95 CALM      29.88S

$$

VAZ036>039-050-241200-
CENTRAL FOOTHILLS

CITY           SKY/WX    TMP DP  RH WIND       PRES   REMARKS
CHARLOTTESVILL CLEAR     55  50  83 SW6       29.90R
CULPEPER*      PTCLDY    45  45  99 CALM      29.92R
ORANGE*        CLEAR     45  45 100 CALM      29.93R
GORDONSVILLE*  CLEAR     44  44 100 CALM      29.92R
WARRENTON*     PTCLDY    55  50  81 S3        29.90R

$$

VAZ055>057-241200-
NORTH AND CENTRAL PIEDMONT

CITY           SKY/WX    TMP DP  RH WIND       PRES   REMARKS
FREDERICKSBRG* CLEAR     49  49 100 CALM      29.92R
STAFFORD*      CLEAR     51  51 100 CALM      29.96R

$$

NCZ024-NYZ072-PAZ021-071-VAZ022-071-241200-
OTHER REGIONAL OBSERVATIONS

CITY           SKY/WX    TMP DP  RH WIND       PRES   REMARKS
NEW YORK CITY  PTCLDY    58  52  80 VRB7      29.94F
PHILADELPHIA   MOCLDY    54  50  86 S6        29.94R
PITTSBURGH     PTCLDY    55  52  89 S5        29.79S
ROANOKE        PTCLDY    49  48  97 CALM      29.93R
RICHMOND       PTCLDY    51  51 100 SE3       29.93S
RALEIGH        PTCLDY    50  48  93 CALM      29.93R

$$

ANZ530>537-241200-
MARINE OBSERVATIONS

STATION/POSITION TIME  TEMP    WIND        PRES
                       AIR SEA DIR/SP/G
                 (UTC) (F)     (DEG/KT/KT) (MB)
THOMAS PT LIGHT  1100   48 44  190/  7/  7   N/A
BALT KEY BRIDGE  1048   51     130/  5/  5 1013.0R
COVE POINT       1048   46     190/  9/ 10 1014.3R
LEWISETTA        1048   56 45  210/  5/  5 1013.5R
SOLOMONS ISLAND  1042   50 45  100/  5/  5   N/A
PINEY POINT      1048          130/  5/  6   N/A

$$





USA.gov is the U.S. government's official web portal to all federal, state and local government web resources and services.